Weather History for Papa, Hungary

Change the Weather History Date:

Thursday, September 13, 2012

  Actual Average Record
Temperature  
Mean Temperature 52 °F -  
Max Temperature 55 °F - - ()
Min Temperature 50 °F - - ()
Degree Days  
Heating Degree Days 12    
Growing Degree Days 2 (Base 50)    
Moisture  
Dew Point 50 °F    
Average Humidity 95    
Maximum Humidity 100    
Minimum Humidity 82    
Precipitation  
Precipitation 0.00 in - - ()
Sea Level Pressure  
Sea Level Pressure 29.82 in    
Wind  
Wind Speed 14 mph ()    
Max Wind Speed 22 mph    
Max Gust Speed 34 mph    
Visibility 5.5 miles    
Events Rain    
T = Trace of Precipitation, MM = Missing Value Source: Averaged Metar Reports

Daily Weather History Graph

Daily Weather History Graph

Search for Another Location

Airport:

Trip Planner

Search our weather history database for the weather conditions in past years. The results will help you decide how hot, cold, wet, or windy it might be!

Date:

Astronomy

Sep. 13, 2012 Rise Set
Actual Time 6:25 AM CEST 7:05 PM CEST
Civil Twilight 5:54 AM CEST 7:36 PM CEST
Nautical Twilight 5:17 AM CEST 8:13 PM CEST
Astronomical Twilight 4:38 AM CEST 8:51 PM CEST
Moon 3:16 AM CEST (9/13) 5:24 PM CEST (9/13)
Length of Visible Light 13h 42m
Length of Day
12h 40m
Waning Crescent, 9% of the Moon is Illuminated
Sep 13
Waning Crescent
Sep 16
New
Sep 22
First Quarter
Sep 30
Full
Oct 8
Last Quarter

Hourly Weather History & Observations

Time (CEST) Temp. Dew Point Humidity Pressure Visibility Wind Dir Wind Speed Gust Speed Precip Events Conditions
12:03 AM 55.4 °F 55.4 °F 100% 29.77 in 6.2 mi North 8.9 mph - N/A   Mostly Cloudy
12:15 AM 55.4 °F 55.4 °F 100% 29.77 in 6.2 mi North 8.9 mph - N/A   Mostly Cloudy
12:45 AM 55.4 °F 55.4 °F 100% 29.77 in 6.2 mi North 11.2 mph 24.6 mph N/A   Mostly Cloudy
12:52 AM 55.4 °F 55.4 °F 100% 29.77 in 6.2 mi NNW 15.7 mph - N/A Rain Light Rain Showers
1:02 AM 55.4 °F 53.6 °F 94% 29.77 in 5.0 mi WNW 15.7 mph 26.8 mph N/A Rain Rain Showers
1:15 AM 53.6 °F 53.6 °F 100% 29.77 in 5.0 mi NW 17.9 mph 31.3 mph N/A Rain Rain Showers
1:45 AM 53.6 °F 53.6 °F 100% 29.74 in 5.0 mi NW 15.7 mph 29.1 mph N/A Rain Rain Showers
2:15 AM 53.6 °F 51.8 °F 94% 29.74 in 6.2 mi North 20.1 mph - N/A Rain Rain Showers
2:45 AM 53.6 °F 51.8 °F 94% 29.74 in 6.2 mi NNW 15.7 mph - N/A Rain Light Rain Showers
3:06 AM 51.8 °F 51.8 °F 100% 29.74 in 6.2 mi NNW 15.7 mph 26.8 mph N/A Rain Light Rain Showers
3:15 AM 51.8 °F 51.8 °F 100% 29.74 in 6.2 mi NNW 17.9 mph - N/A Rain Light Rain
3:45 AM - - N/A% - 6.2 mi NNW 17.9 mph 31.3 mph N/A   Overcast
4:15 AM 50.0 °F 50.0 °F 100% 29.71 in 6.2 mi NNW 22.4 mph 33.6 mph N/A Rain Light Rain
4:45 AM 50.0 °F 50.0 °F 100% 29.74 in 6.2 mi NNW 22.4 mph 33.6 mph N/A Rain Light Rain
5:15 AM 50.0 °F 48.2 °F 94% 29.74 in 6.2 mi NW 17.9 mph 29.1 mph N/A Rain Rain
6:15 AM 50.0 °F 48.2 °F 94% 29.77 in 6.2 mi NNW 17.9 mph - N/A Rain Light Rain
6:30 AM 50.0 °F 48.2 °F 94% 29.77 in 5.0 mi NNW 20.1 mph - N/A Rain Light Rain
6:45 AM - - N/A% - 6.2 mi NNW 17.9 mph 29.1 mph N/A   Overcast
7:15 AM 50.0 °F 48.2 °F 94% 29.77 in 5.0 mi NNW 13.4 mph 24.6 mph N/A Rain Rain
7:45 AM 50.0 °F 48.2 °F 94% 29.77 in 5.0 mi NNW 15.7 mph - N/A Rain Light Rain
8:11 AM 50.0 °F 48.2 °F 94% 29.77 in 5.0 mi NNW 15.7 mph - N/A   Overcast
8:15 AM 50.0 °F 48.2 °F 94% 29.77 in 5.0 mi NNW 15.7 mph - N/A   Overcast
8:34 AM 50.0 °F 48.2 °F 94% 29.80 in 5.0 mi NNW 15.7 mph 26.8 mph N/A Rain Rain
8:45 AM 50.0 °F 48.2 °F 94% 29.80 in 5.0 mi NNW 15.7 mph 26.8 mph N/A Rain Light Rain
9:15 AM 50.0 °F 48.2 °F 94% 29.80 in 5.0 mi NNW 15.7 mph 26.8 mph N/A Rain Light Rain
9:45 AM - - N/A% - 5.0 mi NNW 15.7 mph 26.8 mph N/A Rain Light Rain
10:15 AM 50.0 °F 50.0 °F 100% 29.80 in 5.0 mi NNW 15.7 mph 26.8 mph N/A Rain Light Rain
10:45 AM 51.8 °F 50.0 °F 94% 29.80 in 5.0 mi NNW 15.7 mph 26.8 mph N/A Rain Light Rain
11:15 AM 51.8 °F 50.0 °F 94% 29.83 in 5.0 mi NNW 15.7 mph 26.8 mph N/A Rain Light Rain
11:45 AM 51.8 °F 50.0 °F 94% 29.83 in 5.0 mi NNW 15.7 mph 26.8 mph N/A Rain Light Rain
12:15 PM 51.8 °F 50.0 °F 94% 29.80 in 5.0 mi NNW 17.9 mph - N/A Rain Light Rain
12:45 PM - - N/A% - 6.2 mi NNW 15.7 mph 26.8 mph N/A Rain Light Rain
1:15 PM 53.6 °F 48.2 °F 82% 29.83 in 6.2 mi NNW 20.1 mph - N/A Rain Light Rain
1:45 PM 51.8 °F 48.2 °F 88% 29.83 in 5.0 mi NNW 20.1 mph - N/A Rain Light Rain
2:15 PM 51.8 °F 50.0 °F 94% 29.83 in 5.0 mi North 17.9 mph - N/A Rain Light Rain
2:45 PM 51.8 °F 50.0 °F 94% 29.83 in 5.0 mi NNW 20.1 mph - N/A Rain Light Rain
3:15 PM 51.8 °F 48.2 °F 88% 29.83 in 5.0 mi NNW 22.4 mph - N/A Rain Light Rain
3:45 PM - - N/A% - 6.2 mi NNW 15.7 mph 26.8 mph N/A Rain Light Rain
4:15 PM 50.0 °F 48.2 °F 94% 29.86 in 5.0 mi North 17.9 mph - N/A Rain Light Rain
4:45 PM 50.0 °F 48.2 °F 94% 29.86 in 5.0 mi NNW 20.1 mph 31.3 mph N/A Rain Light Rain
5:15 PM 50.0 °F 50.0 °F 100% 29.86 in 5.0 mi NNW 17.9 mph - N/A Rain Light Rain
5:45 PM 50.0 °F 50.0 °F 100% 29.86 in 5.0 mi NNW 17.9 mph - N/A Rain Light Rain
6:15 PM 50.0 °F 50.0 °F 100% 29.86 in 5.0 mi NNW 17.9 mph - N/A Rain Light Rain
6:45 PM - - N/A% - 6.2 mi NNW 15.7 mph 26.8 mph N/A Rain Light Rain
7:15 PM 50.0 °F 50.0 °F 100% 29.89 in 5.0 mi NNW 17.9 mph - N/A Rain Light Rain
7:45 PM 50.0 °F 50.0 °F 100% 29.89 in 5.0 mi NNW 17.9 mph - N/A Rain Light Rain
8:15 PM 50.0 °F 50.0 °F 100% 29.89 in 5.0 mi NNW 15.7 mph - N/A Rain Light Rain
8:45 PM 51.8 °F 50.0 °F 94% 29.92 in 5.0 mi NNW 15.7 mph - N/A Rain Light Rain
9:15 PM 51.8 °F 50.0 °F 94% 29.92 in 5.0 mi North 13.4 mph - N/A Rain Light Rain
9:45 PM - - N/A% - 6.2 mi North 13.4 mph 26.8 mph N/A Rain Light Rain
10:15 PM 51.8 °F 50.0 °F 94% 29.92 in 6.2 mi North 11.2 mph - N/A Rain Light Rain
10:45 PM 51.8 °F 50.0 °F 94% 29.92 in 6.2 mi North 11.2 mph - N/A Rain Light Rain
10:57 PM 51.8 °F 50.0 °F 94% 29.92 in 6.2 mi North 11.2 mph - N/A   Overcast
11:15 PM 51.8 °F 50.0 °F 94% 29.92 in 6.2 mi NNW 11.2 mph - N/A   Overcast
11:45 PM 51.8 °F 48.2 °F 88% 29.95 in 6.2 mi North 13.4 mph - N/A   Overcast